Theta_e
312 306 308 308 309 312 312 313 314 316 315 325 325 327 326 327 326 324 325 326 326 327 328 327 332 340 341 341 339 339 335 336 336 335 334 335 335 340 348 350 351 350 349 348
310 309 307 309 309 311 312 313 313 315 322 322 322 326 326 326 326 327 326 325 326 327 327 330 330 337 337 333 333 335 336 336 335 336 336 334 334 344 350 350 348 343 342 342
310 310 310 310 310 311 312 312 314 319 321 324 325 326 327 326 325 325 327 327 325 327 329 329 331 328 328 328 333 335 337 338 337 336 336 338 344 344 349 347 347 344 343 343
309 309 311 310 311 312 312 312 314 316 320 320 323 322 321 325 324 321 325 323 325 326 326 330 330 330 329 330 331 331 333 335 336 336 336 335 343 348 348 347 344 344 346 343
310 310 309 310 311 312 313 313 313 314 318 320 320 323 320 317 325 324 318 325 321 322 324 328 332 331 331 332 333 333 334 335 336 335 336 339 339 346 345 345 344 342 341 341
311 311 311 310 312 313 313 313 315 314 312 317 317 321 321 318 320 323 320 321 321 319 325 333 334 334 336 336 335 334 334 339 341 342 343 343 343 342 341 339 338 339 337 338
313 313 312 312 312 311 312 311 314 315 318 319 317 316 318 318 316 318 319 319 318 319 329 339 337 338 336 333 335 336 336 339 338 337 335 330 329 327 326 324 324 325 324 325
312 312 312 311 311 310 310 312 316 319 319 317 316 318 316 320 323 319 318 318 318 327 337 339 337 334 329 326 325 325 324 325 323 324 324 322 322 321 319 318 317 317 317 317
311 312 312 312 312 311 313 313 313 316 319 317 317 320 320 322 323 323 317 318 326 336 340 337 333 327 325 324 322 321 322 320 320 319 319 319 318 317 315 315 315 315 315 315
312 312 312 313 311 311 314 314 317 318 320 321 321 326 320 324 323 324 320 322 329 334 335 333 327 325 325 325 324 325 322 321 321 320 319 317 316 315 315 314 314 314 312 313
311 314 315 317 312 311 313 315 314 315 315 318 321 322 323 324 322 323 318 324 328 332 332 328 325 325 325 325 325 323 322 322 321 321 319 317 317 316 316 315 315 315 313 312
312 312 315 317 317 313 312 314 315 316 321 320 319 318 325 324 324 324 320 322 325 329 328 326 326 326 325 325 324 322 321 320 320 318 318 317 317 317 317 316 316 315 313 311
314 315 317 316 317 317 320 317 315 317 319 324 320 321 326 326 324 325 321 320 324 327 326 326 326 326 325 325 323 320 319 319 318 318 317 317 317 317 316 315 314 313 312 311
316 316 316 317 318 320 325 322 320 319 320 325 325 326 328 327 327 325 325 324 321 322 325 325 326 326 325 324 320 319 318 318 317 317 317 317 316 315 315 314 313 312 311 311
316 320 322 325 325 324 324 323 321 322 323 322 324 325 327 327 326 326 325 324 319 320 322 323 324 325 324 321 319 318 318 317 317 316 315 314 314 313 313 312 312 311 310 310
317 322 323 325 324 324 323 321 321 322 322 325 325 326 324 325 326 325 325 323 317 316 317 317 318 318 318 318 317 317 316 315 314 314 313 313 313 312 312 311 311 310 309 309
319 318 318 325 325 322 322 323 318 319 317 322 324 322 323 325 323 323 324 323 322 316 316 316 315 315 315 315 314 314 314 314 313 313 313 312 312 311 310 310 309 308 308 307
318 317 316 321 318 324 321 319 317 317 316 318 322 322 319 315 315 316 318 316 316 315 313 312 313 313 313 313 313 314 314 313 313 312 311 310 310 309 308 307 307 306 305 304
316 316 317 318 316 318 320 319 320 317 316 315 317 315 314 314 314 313 313 313 313 313 312 312 312 311 311 311 311 310 310 310 309 308 307 307 306 305 305 305 304 303 302 301
318 315 317 315 318 318 317 317 316 315 316 315 315 314 313 313 313 308 307 309 309 309 309 309 309 308 308 308 307 306 306 306 305 305 304 304 303 302 302 301 301 301 302 303
319 316 317 315 315 320 319 320 319 317 316 314 315 313 313 309 309 305 306 306 306 306 306 305 306 306 305 305 304 304 304 303 302 301 301 300 300 300 300 300 301 302 303 303
319 317 313 315 317 321 320 319 318 314 313 312 311 310 307 306 305 306 306 306 305 305 305 305 304 303 302 301 301 300 299 299 299 299 299 299 298 299 299 300 302 302 302 303
319 316 316 315 316 313 315 314 313 312 310 308 308 306 307 305 305 305 305 304 304 303 302 301 299 299 298 298 298 297 297 297 297 297 297 297 298 299 300 301 302 302 303 302
318 316 314 314 312 311 309 310 311 311 309 307 307 307 307 305 304 303 302 302 300 299 298 298 298 297 296 295 295 295 295 295 295 296 297 298 299 300 300 301 301 302 302 301
315 315 313 312 310 308 306 306 307 306 306 306 305 305 304 304 302 301 300 298 298 298 297 296 296 295 294 294 293 293 293 294 295 296 296 297 298 298 300 300 299 299 300 298
312 313 313 312 311 309 305 304 305 305 304 304 304 303 302 302 301 299 297 298 298 297 296 295 294 294 293 293 293 293 293 293 294 294 295 295 296 296 297 298 300 299 299 299
Wind_Speed
12 4 16 10 5 0 5 6 3 3 7 4 6 5 7 9 7 11 8 6 7 6 8 9 14 17 19 18 17 19 19 21 33 29 23 28 29 33 35 32 30 28 30 28
5 9 7 6 7 5 1 4 5 2 5 7 5 7 8 8 7 12 11 7 5 6 12 17 20 22 21 16 16 18 12 12 21 33 38 35 30 26 29 30 29 29 30 30
7 5 10 10 8 9 4 5 2 2 4 2 6 5 3 6 10 11 18 14 6 10 17 22 24 25 22 19 16 17 15 11 14 19 25 32 37 34 29 29 28 27 28 29
4 7 16 6 10 7 5 7 5 4 2 5 6 6 5 6 9 7 22 15 14 13 15 22 25 25 23 20 19 16 14 14 17 18 19 21 20 23 29 28 30 29 23 21
8 12 11 11 6 8 5 6 6 5 4 3 3 3 7 0 10 15 12 30 19 16 16 26 27 28 24 21 18 16 15 14 15 15 13 12 13 10 13 16 18 21 23 21
7 10 8 9 7 9 7 4 1 3 4 2 6 5 4 6 7 8 10 26 24 16 16 30 31 28 26 21 17 15 14 11 8 6 6 7 7 5 7 7 9 10 11 13
4 5 4 5 5 4 5 6 0 1 1 6 4 1 7 9 8 10 12 26 22 20 30 37 33 29 26 22 20 18 14 14 10 8 9 11 12 11 10 10 9 8 9 10
5 2 8 5 7 7 6 8 5 4 4 2 2 6 6 0 6 13 21 19 20 31 40 40 35 30 26 23 21 20 17 16 12 10 10 9 8 8 9 10 12 13 14 15
5 3 1 7 5 10 5 5 9 5 4 3 2 7 1 7 11 14 6 23 33 42 45 40 33 27 23 22 19 14 9 8 7 5 5 7 9 12 17 18 18 20 21 21
2 2 6 5 6 2 7 7 5 3 6 2 4 4 4 7 9 10 1 16 31 42 43 37 32 27 23 19 15 8 8 8 5 1 4 11 11 13 18 20 21 26 25 26
3 3 5 5 6 10 2 3 5 4 5 6 2 5 4 2 5 9 3 10 30 46 41 35 31 27 22 17 12 12 10 5 3 5 8 11 15 16 18 19 21 26 27 30
7 4 3 5 3 6 7 9 7 5 4 3 4 5 3 3 4 10 5 10 21 36 35 32 29 25 20 16 15 12 8 5 6 7 8 9 10 13 16 18 21 25 28 31
6 2 2 5 6 4 4 2 5 6 4 5 5 5 1 4 9 12 16 14 17 27 27 25 24 21 18 16 15 11 8 6 8 8 9 9 11 13 17 19 24 27 29 29
10 3 6 6 5 3 3 4 3 7 4 5 5 3 5 8 8 6 13 24 15 15 23 22 21 20 19 17 13 12 10 10 10 9 8 12 16 18 21 24 27 30 28 29
7 5 2 5 4 5 3 3 2 4 6 6 8 8 7 5 13 9 5 20 21 9 14 16 14 15 15 12 11 11 9 7 6 9 13 15 17 20 21 23 24 25 26 28
3 4 4 3 1 3 6 6 6 5 5 6 7 2 2 11 9 11 6 18 26 19 19 17 15 15 13 10 6 3 2 6 9 12 16 18 18 19 21 24 25 28 30 32
3 6 4 1 3 3 4 3 3 6 5 4 5 6 7 8 8 8 13 13 18 16 15 16 15 13 10 6 3 3 7 10 13 15 16 17 19 21 24 26 28 32 36 40
6 5 3 3 3 1 3 11 18 14 8 6 12 9 11 15 20 21 19 24 24 16 9 10 10 7 4 0 4 6 9 11 12 15 18 20 23 26 29 32 36 40 44 47
4 6 4 5 3 3 3 4 6 5 5 7 14 16 25 28 34 21 17 17 14 10 10 10 8 5 2 2 2 4 7 11 15 19 23 26 29 33 37 40 44 46 47 45
4 6 5 3 5 5 4 1 22 7 3 4 15 18 21 13 7 2 19 17 16 14 10 7 4 3 4 7 9 12 16 20 24 27 30 33 36 39 42 43 43 41 38 36
3 4 5 4 4 2 4 2 1 4 7 13 18 13 17 5 11 20 19 17 13 9 6 4 6 10 13 16 19 22 25 28 31 34 36 38 39 39 37 36 34 33 30 27
4 5 2 3 4 2 3 2 3 11 19 27 26 29 33 30 25 19 14 11 6 6 8 10 14 17 20 23 26 28 29 31 32 34 34 34 33 32 30 29 27 24 22 21
3 4 6 2 1 4 3 18 30 31 33 26 34 29 31 26 19 13 9 6 6 8 11 14 17 19 21 23 25 27 28 30 32 31 30 29 27 25 23 23 21 20 19 22
3 2 5 4 6 13 24 33 38 36 35 30 28 25 19 21 14 10 7 6 8 11 14 17 18 19 21 23 25 26 27 27 27 27 25 23 23 21 19 17 17 18 19 20
1 5 8 10 9 24 18 31 36 34 31 28 23 19 17 14 13 8 7 7 10 12 14 16 18 20 22 23 23 23 24 24 24 22 21 20 20 19 18 17 19 19 16 17
2 10 6 5 21 18 18 31 32 32 28 24 23 21 16 10 10 7 7 8 10 12 14 17 19 20 22 22 21 21 21 21 21 21 20 19 19 19 20 22 22 17 16 17
Wind_Direction
185 141 199 185 113 83 129 141 228 131 227 136 195 197 241 232 197 165 183 207 270 167 180 173 175 179 199 216 224 239 248 237 224 221 227 242 258 265 263 259 268 276 281 276
130 216 182 156 175 224 164 141 202 262 190 169 195 221 228 244 253 253 232 215 205 195 189 180 164 171 186 193 206 220 234 244 246 237 244 255 267 276 269 271 269 270 269 271
158 209 178 179 170 185 189 155 159 174 180 156 114 304 225 272 276 256 268 274 231 194 177 186 178 174 176 180 185 200 212 219 228 237 251 262 268 264 264 265 262 261 264 263
205 227 174 172 193 155 183 170 184 247 128 208 158 257 252 230 258 261 254 234 237 211 195 183 180 178 179 177 176 184 196 215 236 246 254 265 274 263 260 266 267 270 271 268
226 189 176 192 175 153 184 158 192 218 183 136 338 121 269 4 231 253 266 258 232 206 216 188 176 171 167 163 161 165 177 199 228 248 263 265 263 271 267 269 268 270 268 268
206 194 162 178 175 166 164 134 102 58 129 202 208 182 266 230 210 238 237 247 249 217 177 164 158 160 161 164 168 172 182 188 201 219 239 258 267 291 296 308 314 314 317 299
181 237 176 142 160 152 121 117 241 216 86 223 196 57 229 255 238 227 234 238 228 196 169 164 163 162 154 150 145 140 141 131 124 114 107 89 83 76 66 57 45 25 13 9
158 158 161 180 172 157 174 154 152 174 186 294 143 224 244 260 14 338 262 250 205 171 167 163 163 158 151 145 142 140 134 121 112 103 94 82 68 51 30 14 8 1 353 348
138 274 167 173 175 147 171 140 192 96 22 79 231 285 151 16 3 354 272 176 169 167 167 164 160 159 154 150 144 140 119 123 130 109 57 16 4 4 7 1 355 348 340 334
108 169 200 206 124 264 166 160 97 355 158 182 275 287 239 354 336 336 284 176 166 164 163 162 161 159 155 154 149 140 135 137 143 171 342 347 346 349 348 351 345 346 342 336
159 88 304 119 171 165 108 162 64 113 134 165 172 262 211 293 325 327 259 185 166 163 164 163 164 163 160 159 154 153 158 154 234 285 305 325 338 336 336 335 337 335 335 333
189 152 225 195 203 189 165 172 151 128 199 140 159 259 196 254 12 16 133 143 166 164 165 167 165 165 165 164 165 168 175 209 241 256 275 295 303 309 314 320 323 323 329 332
175 242 345 355 359 10 64 141 119 119 95 179 136 249 190 59 49 38 80 99 164 164 168 169 169 172 174 173 175 179 194 215 221 227 248 270 293 308 313 315 321 323 324 329
132 129 157 185 200 153 17 23 158 122 113 166 200 178 188 203 113 328 74 83 93 178 178 179 177 178 180 177 180 183 185 197 220 243 277 302 308 306 307 314 317 319 320 322
131 157 108 69 121 123 109 70 301 126 147 157 197 187 214 197 147 215 63 84 68 116 168 182 185 184 175 177 182 189 199 216 254 289 299 298 297 301 306 308 310 312 312 312
359 132 107 67 137 130 95 21 61 56 144 83 84 92 170 111 154 160 126 87 78 86 109 118 133 143 145 150 147 145 290 288 278 281 287 290 293 296 302 304 304 303 304 307
108 129 106 117 292 133 59 151 48 54 22 122 152 203 148 137 130 118 114 103 99 84 93 102 109 108 111 125 161 239 251 265 271 272 276 282 290 294 295 297 300 303 306 309
138 102 91 132 35 104 231 118 104 93 29 6 100 115 105 100 97 96 104 110 119 129 121 114 107 110 103 53 272 273 265 261 266 278 286 292 295 297 300 303 306 308 309 310
230 110 90 125 121 300 54 186 135 136 16 10 116 111 108 107 98 68 95 112 116 122 111 89 77 70 48 328 312 289 285 287 289 291 296 299 302 304 306 307 308 308 309 311
84 77 108 128 111 179 250 10 125 101 61 37 124 127 128 119 104 33 114 117 114 113 106 92 68 13 328 325 315 308 304 301 300 300 301 303 305 306 307 308 309 312 314 316
50 44 120 100 112 292 179 350 350 112 195 152 141 130 125 89 121 132 123 112 105 94 78 40 342 330 323 315 310 308 306 305 304 305 306 307 307 308 310 313 317 317 320 321
140 116 112 78 102 166 134 50 181 141 119 131 128 126 116 123 128 129 117 104 81 34 359 337 327 322 318 316 313 312 311 310 310 311 313 315 317 319 319 319 321 324 325 327
100 170 134 95 211 328 89 121 121 130 126 124 130 131 131 130 123 117 102 70 25 353 339 331 329 327 324 324 323 323 323 321 319 319 320 321 321 322 322 325 329 332 335 332
86 107 96 88 0 73 93 109 124 132 129 133 131 133 132 123 117 106 80 39 8 353 344 341 338 338 338 336 334 330 329 327 326 324 325 326 326 328 331 331 331 332 333 329
45 62 113 90 101 85 85 117 126 125 128 127 122 120 117 120 110 90 69 33 11 360 354 351 349 348 346 343 341 338 335 333 331 332 334 334 335 335 333 333 334 330 329 326
346 150 132 177 168 127 142 136 135 131 130 127 124 117 106 93 89 73 57 32 12 5 1 358 359 356 354 350 348 347 346 344 342 341 342 342 340 339 337 335 333 332 325 327